• Em Portugal
  • Lista de países
  • Para 7 dias
  • Temperatura da água
  • Mapas de satélite
  • Mapa do tempo
  • Widgets de tempo
  • user-avatar
    Iniciar Sessão

    Previsão horária em Bolotniki

    Hoje, 20 Setembro, Quinta-feira

    Tempo Temperatura Precipitação Vento Pressão Humidade
    00:00 +17°C° 0 mm 2 m/s 750 mmHg 95%
    01:00 +16°C° 0 mm 2 m/s 750 mmHg 96%
    02:00 +16°C° 0 mm 2 m/s 750 mmHg 96%
    03:00 +16°C° 0 mm 2 m/s 750 mmHg 97%
    04:00 +15°C° 0 mm 2 m/s 750 mmHg 97%
    05:00 +15°C° 0 mm 2 m/s 750 mmHg 97%
    06:00 +15°C° 0 mm 2 m/s 751 mmHg 93%
    07:00 +16°C° 0 mm 2 m/s 751 mmHg 89%
    08:00 +17°C° 0 mm 2 m/s 751 mmHg 85%
    09:00 +19°C° 0 mm 2 m/s 751 mmHg 76%
    10:00 +20°C° 0 mm 2 m/s 751 mmHg 66%
    11:00 +22°C° 0 mm 3 m/s 751 mmHg 57%
    12:00 +24°C° 0 mm 3 m/s 751 mmHg 54%
    13:00 +25°C° 0 mm 3 m/s 751 mmHg 51%
    14:00 +26°C° 0 mm 3 m/s 751 mmHg 47%
    15:00 +25°C° 0 mm 3 m/s 751 mmHg 53%
    16:00 +24°C° 0 mm 2 m/s 751 mmHg 59%
    17:00 +24°C° 0 mm 1 m/s 751 mmHg 65%
    18:00 +22°C° 0 mm 1 m/s 751 mmHg 71%
    19:00 +21°C° 0 mm 1 m/s 751 mmHg 78%
    20:00 +19°C° 0 mm 1 m/s 751 mmHg 84%
    21:00 +19°C° 0 mm 1 m/s 751 mmHg 87%
    22:00 +19°C° 0 mm 1 m/s 751 mmHg 89%
    23:00 +17°C° 0 mm 2 m/s 751 mmHg 92%

    Amanhã, 21 Setembro, Sexta-feira

    Tempo Temperatura Precipitação Vento Pressão Humidade
    00:00 +17°C° 0 mm 2 m/s 751 mmHg 92%
    01:00 +17°C° 0 mm 2 m/s 751 mmHg 93%
    02:00 +17°C° 0 mm 2 m/s 751 mmHg 93%
    03:00 +17°C° 0 mm 2 m/s 751 mmHg 94%
    04:00 +16°C° 0 mm 2 m/s 751 mmHg 94%
    05:00 +16°C° 0 mm 2 m/s 751 mmHg 94%
    06:00 +17°C° 0 mm 2 m/s 751 mmHg 90%
    07:00 +19°C° 0 mm 2 m/s 751 mmHg 86%
    08:00 +20°C° 0 mm 3 m/s 751 mmHg 81%
    09:00 +21°C° 0 mm 3 m/s 751 mmHg 74%
    10:00 +24°C° 0 mm 3 m/s 751 mmHg 67%
    11:00 +26°C° 0 mm 4 m/s 751 mmHg 60%
    12:00 +27°C° 0 mm 4 m/s 751 mmHg 57%
    13:00 +27°C° 0 mm 4 m/s 751 mmHg 54%
    14:00 +28°C° 0 mm 4 m/s 750 mmHg 51%
    15:00 +27°C° 0 mm 4 m/s 750 mmHg 55%
    16:00 +25°C° 0 mm 3 m/s 750 mmHg 58%
    17:00 +24°C° 0 mm 3 m/s 749 mmHg 62%
    18:00 +22°C° 0 mm 3 m/s 749 mmHg 66%
    19:00 +20°C° 0 mm 3 m/s 749 mmHg 71%
    20:00 +19°C° 0 mm 3 m/s 748 mmHg 75%
    21:00 +19°C° 0 mm 4 m/s 748 mmHg 74%
    22:00 +19°C° 0 mm 4 m/s 748 mmHg 72%
    23:00 +19°C° 0 mm 5 m/s 747 mmHg 70%

    Depois de amanhã, 22 Setembro, Sábado

    Tempo Temperatura Precipitação Vento Pressão Humidade
    00:00 +19°C° 0 mm 5 m/s 747 mmHg 69%
    01:00 +19°C° 0 mm 5 m/s 746 mmHg 68%
    02:00 +19°C° 0 mm 5 m/s 746 mmHg 68%
    03:00 +17°C° 0 mm 5 m/s 746 mmHg 67%
    04:00 +17°C° 0 mm 5 m/s 745 mmHg 67%
    05:00 +17°C° 0 mm 5 m/s 745 mmHg 66%
    06:00 +17°C° 0 mm 6 m/s 745 mmHg 66%
    07:00 +19°C° 0 mm 6 m/s 745 mmHg 66%
    08:00 +19°C° 0 mm 6 m/s 745 mmHg 66%
    09:00 +17°C° 0.4 mm 6 m/s 745 mmHg 70%
    10:00 +16°C° 0.4 mm 5 m/s 745 mmHg 75%
    11:00 +15°C° 0.4 mm 5 m/s 746 mmHg 80%
    12:00 +14°C° 0.6 mm 4 m/s 746 mmHg 82%
    13:00 +13°C° 0.6 mm 3 m/s 746 mmHg 85%
    14:00 +13°C° 0.6 mm 2 m/s 747 mmHg 87%
    15:00 +12°C° 0.5 mm 3 m/s 747 mmHg 88%
    16:00 +12°C° 0.5 mm 3 m/s 747 mmHg 88%
    17:00 +12°C° 0.5 mm 3 m/s 747 mmHg 89%
    18:00 +11°C° 0.2 mm 3 m/s 748 mmHg 88%
    19:00 +11°C° 0.2 mm 3 m/s 748 mmHg 87%
    20:00 +11°C° 0.2 mm 3 m/s 748 mmHg 87%
    21:00 +10°C° 0 mm 3 m/s 748 mmHg 86%
    22:00 +10°C° 0 mm 3 m/s 748 mmHg 86%
    23:00 +10°C° 0 mm 3 m/s 747 mmHg 86%

    23 Setembro, Domingo

    Tempo Temperatura Precipitação Vento Pressão Humidade
    00:00 +9°C° 0 mm 3 m/s 747 mmHg 88%
    01:00 +9°C° 0 mm 3 m/s 747 mmHg 89%
    02:00 +8°C° 0 mm 2 m/s 747 mmHg 91%
    03:00 +8°C° 0 mm 3 m/s 747 mmHg 92%
    04:00 +7°C° 0 mm 3 m/s 747 mmHg 92%
    05:00 +7°C° 0 mm 3 m/s 746 mmHg 92%
    06:00 +8°C° 0 mm 3 m/s 746 mmHg 88%
    07:00 +8°C° 0 mm 4 m/s 746 mmHg 85%
    08:00 +9°C° 0 mm 5 m/s 746 mmHg 81%
    09:00 +10°C° 0 mm 5 m/s 746 mmHg 75%
    10:00 +12°C° 0 mm 5 m/s 746 mmHg 69%
    11:00 +14°C° 0 mm 5 m/s 745 mmHg 63%
    12:00 +14°C° 0.2 mm 6 m/s 745 mmHg 64%
    13:00 +14°C° 0.2 mm 6 m/s 745 mmHg 65%
    14:00 +14°C° 0.2 mm 6 m/s 745 mmHg 65%
    15:00 +13°C° 0.1 mm 5 m/s 745 mmHg 67%
    16:00 +13°C° 0.1 mm 4 m/s 745 mmHg 68%
    17:00 +12°C° 0.1 mm 3 m/s 745 mmHg 70%
    18:00 +11°C° 0 mm 3 m/s 745 mmHg 74%
    19:00 +10°C° 0 mm 3 m/s 745 mmHg 78%
    20:00 +9°C° 0 mm 3 m/s 745 mmHg 82%
    21:00 +9°C° 0 mm 3 m/s 745 mmHg 83%
    22:00 +8°C° 0 mm 3 m/s 744 mmHg 84%
    23:00 +8°C° 0 mm 2 m/s 744 mmHg 86%

    24 Setembro, Segunda-feira

    Tempo Temperatura Precipitação Vento Pressão Humidade
    00:00 +8°C° 0 mm 2 m/s 743 mmHg 85%
    01:00 +8°C° 0 mm 2 m/s 743 mmHg 84%
    02:00 +9°C° 0 mm 2 m/s 742 mmHg 82%
    03:00 +8°C° 0.5 mm 3 m/s 741 mmHg 85%
    04:00 +8°C° 0.5 mm 3 m/s 740 mmHg 88%
    05:00 +7°C° 0.5 mm 4 m/s 739 mmHg 91%
    06:00 +7°C° 3.2 mm 5 m/s 737 mmHg 92%
    07:00 +7°C° 3.2 mm 6 m/s 736 mmHg 92%
    08:00 +6°C° 3.2 mm 7 m/s 734 mmHg 93%
    09:00 +8°C° 3 mm 7 m/s 733 mmHg 93%
    10:00 +8°C° 3 mm 7 m/s 731 mmHg 93%
    11:00 +9°C° 3 mm 7 m/s 729 mmHg 93%
    12:00 +9°C° 2.7 mm 7 m/s 728 mmHg 92%
    13:00 +10°C° 2.7 mm 6 m/s 726 mmHg 91%
    14:00 +11°C° 2.7 mm 6 m/s 725 mmHg 91%
    15:00 +10°C° 0.9 mm 6 m/s 725 mmHg 90%
    16:00 +9°C° 0.9 mm 6 m/s 726 mmHg 90%
    17:00 +8°C° 0.9 mm 6 m/s 726 mmHg 90%
    18:00 +7°C° 1.8 mm 8 m/s 727 mmHg 89%
    19:00 +6°C° 1.8 mm 9 m/s 729 mmHg 88%
    20:00 +4°C° 1.8 mm 11 m/s 730 mmHg 87%
    21:00 +4°C° 0.6 mm 11 m/s 732 mmHg 86%
    22:00 +5°C° 0.6 mm 10 m/s 733 mmHg 85%
    23:00 +5°C° 0.6 mm 10 m/s 735 mmHg 84%

    25 Setembro, Terça-feira

    Tempo Temperatura Precipitação Vento Pressão Humidade
    00:00 +5°C° 0.1 mm 9 m/s 736 mmHg 83%
    01:00 +3°C° 0.1 mm 9 m/s 737 mmHg 82%
    02:00 +4°C° 0.1 mm 8 m/s 739 mmHg 82%
    03:00 +4°C° 0 mm 8 m/s 740 mmHg 81%
    04:00 +2°C° 0 mm 8 m/s 740 mmHg 81%
    05:00 +3°C° 0 mm 7 m/s 741 mmHg 81%
    06:00 +3°C° 0 mm 7 m/s 742 mmHg 77%
    07:00 +4°C° 0 mm 7 m/s 743 mmHg 74%
    08:00 +4°C° 0 mm 8 m/s 744 mmHg 71%
    09:00 +5°C° 0 mm 8 m/s 744 mmHg 65%
    10:00 +5°C° 0 mm 8 m/s 745 mmHg 60%
    11:00 +6°C° 0 mm 8 m/s 746 mmHg 55%
    12:00 +8°C° 0 mm 7 m/s 746 mmHg 52%
    13:00 +8°C° 0 mm 7 m/s 747 mmHg 50%
    14:00 +9°C° 0 mm 7 m/s 747 mmHg 48%
    15:00 +8°C° 0 mm 6 m/s 748 mmHg 53%
    16:00 +8°C° 0 mm 5 m/s 748 mmHg 57%
    17:00 +8°C° 0 mm 4 m/s 749 mmHg 62%
    18:00 +7°C° 0 mm 4 m/s 750 mmHg 66%
    19:00 +6°C° 0 mm 4 m/s 750 mmHg 71%
    20:00 +5°C° 0 mm 3 m/s 751 mmHg 75%
    21:00 +4°C° 0 mm 3 m/s 751 mmHg 76%
    22:00 +4°C° 0 mm 3 m/s 752 mmHg 78%
    23:00 +4°C° 0 mm 3 m/s 752 mmHg 80%
    Mostrar mais